DG5MG Weather Reports


time (UTC)temp
C
wind
direction
speed
KPH
gust
KPH
rain 1hr
cm
rain 24hr
cm
rain mn
cm
humidity
%
barometer
mb
20260903023505 13 120 0.0 0.0 0.00 0.00 0.00 90 1027.1
20260903023005 13 120 0.0 0.0 0.00 0.00 0.00 90 1027.1
20260903022005 13 123 0.0 0.0 0.00 0.00 0.00 89 1027.1
20260903021505 13 108 0.0 0.0 0.00 0.00 0.00 89 1027.1
20260903021005 13 108 0.0 0.0 0.00 0.00 0.00 89 1027.4
20260903020505 13 108 0.0 0.0 0.00 0.00 0.00 89 1027.1
20260903020005 13 115 1.6 3.2 0.00 0.00 0.00 89 1027.1
20260903015005 14 123 0.0 0.0 0.00 0.00 0.00 88 1027.4
20260903014505 14 120 0.0 1.6 0.00 0.00 0.00 88 1027.4
20260903014005 14 123 0.0 1.6 0.00 0.00 0.00 87 1027.4
20260903013505 14 132 0.0 0.0 0.00 0.00 0.00 86 1027.1
20260903013005 15 128 0.0 0.0 0.00 0.00 0.00 86 1027.1
20260903012005 15 301 0.0 1.6 0.00 0.00 0.00 83 1027.1
20260903011505 15 110 0.0 1.6 0.00 0.00 0.00 83 1027.1
20260903011005 15 115 0.0 0.0 0.00 0.00 0.00 83 1027.1
20260903010004 15 113 0.0 0.0 0.00 0.00 0.00 83 1027.1
20260903005504 15 134 0.0 0.0 0.00 0.00 0.00 84 1027.1
20260903005005 15 142 0.0 0.0 0.00 0.00 0.00 84 1027.1
20260903004505 15 172 0.0 0.0 0.00 0.00 0.00 83 1027.4
20260903004005 15 282 0.0 0.0 0.00 0.00 0.00 84 1027.1
20260903003505 15 282 0.0 0.0 0.00 0.00 0.00 83 1027.1
20260903002505 15 282 0.0 0.0 0.00 0.00 0.00 83 1027.1
20260903002005 15 282 0.0 0.0 0.00 0.00 0.00 82 1026.8
20260903001505 15 282 0.0 0.0 0.00 0.00 0.00 81 1027.1
20260903001005 15 282 0.0 0.0 0.00 0.00 0.00 80 1026.8
20260903000505 16 282 0.0 0.0 0.00 0.00 0.00 80 1027.1
20260903000005 16 282 0.0 0.0 0.00 0.00 0.00 80 1027.0
20260902235504 16 282 0.0 0.0 0.00 0.00 0.00 79 1026.8
20260902235005 16 282 0.0 0.0 0.00 0.00 0.00 78 1026.8
20260902234505 16 282 0.0 0.0 0.00 0.00 0.00 77 1027.1
20260902234005 16 282 0.0 0.0 0.00 0.00 0.00 76 1027.1
20260902233504 16 282 0.0 0.0 0.00 0.00 0.00 75 1027.1
20260902233005 16 282 0.0 0.0 0.00 0.00 0.00 75 1027.1
20260902232505 17 282 0.0 0.0 0.00 0.00 0.00 74 1027.1
20260902232005 17 282 0.0 0.0 0.00 0.00 0.00 74 1027.1
20260902231505 17 282 0.0 0.0 0.00 0.00 0.00 74 1027.1
20260902231006 17 282 0.0 0.0 0.00 0.00 0.00 73 1027.1
20260902230505 17 291 0.0 0.0 0.00 0.00 0.00 73 1027.1
20260902230005 17 287 1.6 3.2 0.00 0.00 0.00 73 1027.1
20260902225005 17 290 1.6 1.6 0.00 0.00 0.00 72 1027.1
20260902224505 17 289 0.0 3.2 0.00 0.00 0.00 72 1027.4
20260902224005 17 288 1.6 3.2 0.00 0.00 0.00 72 1027.1
20260902223505 17 295 1.6 3.2 0.00 0.00 0.00 71 1027.1
20260902223005 17 296 1.6 3.2 0.00 0.00 0.00 71 1027.1
20260902222505 17 287 1.6 3.2 0.00 0.00 0.00 71 1027.1
20260902222005 17 284 1.6 3.2 0.00 0.00 0.00 71 1027.1
20260902221505 17 287 1.6 4.8 0.00 0.00 0.00 70 1027.1
20260902220504 18 286 3.2 4.8 0.00 0.00 0.00 69 1026.8
20260902220005 18 288 4.8 4.8 0.00 0.00 0.00 69 1026.8
20260902215504 18 307 4.8 4.8 0.00 0.00 0.00 69 1026.8
20260902214005 18 288 1.6 1.6 0.00 0.00 0.00 67 1026.8
20260902213505 18 273 0.0 1.6 0.00 0.00 0.00 67 1026.5
20260902213005 18 266 1.6 3.2 0.00 0.00 0.00 67 1026.4
20260902212505 18 291 1.6 4.8 0.00 0.00 0.00 66 1026.4
20260902212004 18 261 3.2 4.8 0.00 0.00 0.00 65 1026.8
20260902211504 18 305 3.2 4.8 0.00 0.00 0.00 65 1026.8
20260902211005 18 240 3.2 4.8 0.00 0.00 0.00 65 1026.4
20260902210005 18 295 0.0 1.6 0.00 0.00 0.00 64 1026.4
20260902205004 19 252 0.0 4.8 0.00 0.00 0.00 63 1026.4
20260902204505 19 263 3.2 4.8 0.00 0.00 0.00 62 1026.1
20260902204005 19 300 1.6 3.2 0.00 0.00 0.00 61 1026.1
20260902203504 19 280 1.6 3.2 0.00 0.00 0.00 61 1026.1
20260902203005 19 273 1.6 3.2 0.00 0.00 0.00 61 1026.1
20260902202505 20 251 3.2 3.2 0.00 0.00 0.00 60 1026.1
20260902200505 20 281 1.6 4.8 0.00 0.00 0.00 59 1026.1
20260902200005 20 286 1.6 3.2 0.00 0.00 0.00 59 1026.1
20260902195505 20 284 1.6 4.8 0.00 0.00 0.00 59 1026.1
20260902195005 20 253 3.2 4.8 0.00 0.00 0.00 58 1026.1
20260902194505 20 280 3.2 4.8 0.00 0.00 0.00 58 1026.1
20260902193504 20 280 1.6 3.2 0.00 0.00 0.00 57 1026.1
20260902193005 20 279 1.6 3.2 0.00 0.00 0.00 57 1026.1
20260902192504 20 293 3.2 3.2 0.00 0.00 0.00 57 1026.1
20260902192005 20 287 1.6 3.2 0.00 0.00 0.00 57 1026.1
20260902191505 20 276 1.6 3.2 0.00 0.00 0.00 57 1025.7
20260902191005 20 292 0.0 0.0 0.00 0.00 0.00 57 1026.1
20260902190005 20 259 0.0 1.6 0.00 0.00 0.00 58 1026.1
20260902185504 20 256 0.0 0.0 0.00 0.00 0.00 57 1026.1
20260902185005 21 296 0.0 0.0 0.00 0.00 0.00 57 1025.7
20260902184505 21 299 0.0 0.0 0.00 0.00 0.00 57 1026.1
20260902184005 21 282 0.0 0.0 0.00 0.00 0.00 56 1025.7
20260902183505 21 287 0.0 0.0 0.00 0.00 0.00 56 1025.7
20260902183004 21 289 0.0 0.0 0.00 0.00 0.00 56 1025.7
20260902182505 21 286 0.0 1.6 0.00 0.00 0.00 55 1025.7
20260902182005 21 286 1.6 1.6 0.00 0.00 0.00 55 1025.7
20260902181004 21 277 0.0 0.0 0.00 0.00 0.00 54 1025.4
20260902180505 21 268 1.6 1.6 0.00 0.00 0.00 54 1025.4
20260902180007 22 251 1.6 1.6 0.00 0.00 0.00 53 1025.4
20260902175504 22 284 0.0 3.2 0.00 0.00 0.00 53 1025.4
20260902175005 22 288 1.6 3.2 0.00 0.00 0.00 52 1025.4
20260902174005 22 259 1.6 3.2 0.00 0.00 0.00 51 1025.4
20260902173005 22 284 1.6 3.2 0.00 0.00 0.00 50 1025.1
20260902172505 23 269 0.0 8.0 0.00 0.00 0.00 50 1025.4
20260902172005 23 300 4.8 8.0 0.00 0.00 0.00 49 1025.1
20260902171505 23 300 4.8 8.0 0.00 0.00 0.00 49 1025.1
20260902171005 23 271 3.2 4.8 0.00 0.00 0.00 49 1025.1
20260902170505 23 279 0.0 0.0 0.00 0.00 0.00 48 1025.1
20260902170005 23 279 0.0 1.6 0.00 0.00 0.00 48 1025.1
20260902165005 24 286 0.0 0.0 0.00 0.00 0.00 46 1025.1
20260902164006 24 279 0.0 3.2 0.00 0.00 0.00 44 1025.1
20260902162005 24 303 1.6 3.2 0.00 0.00 0.00 42 1025.1
20260902161505 24 303 3.2 8.0 0.00 0.00 0.00 42 1025.1
20260902161004 25 290 4.8 11.3 0.00 0.00 0.00 42 1024.7
20260902160505 25 301 8.0 11.3 0.00 0.00 0.00 42 1024.7
20260902154505 25 279 8.0 11.3 0.00 0.00 0.00 42 1024.7
20260902154005 25 288 3.2 4.8 0.00 0.00 0.00 43 1025.1
20260902153505 25 313 3.2 4.8 0.00 0.00 0.00 44 1025.1
20260902152504 25 296 4.8 9.7 0.00 0.00 0.00 47 1024.7
20260902152005 25 308 3.2 3.2 0.00 0.00 0.00 47 1025.1
20260902151504 25 308 3.2 9.7 0.00 0.00 0.00 47 1025.1
20260902151005 25 289 4.8 16.1 0.00 0.00 0.00 48 1024.7
20260902150505 24 293 12.9 16.1 0.00 0.00 0.00 49 1025.1
20260902150005 24 293 11.3 16.1 0.00 0.00 0.00 49 1025.1
20260902145505 25 263 4.8 12.9 0.00 0.00 0.00 48 1025.1
20260902145005 25 284 9.7 12.9 0.00 0.00 0.00 47 1025.1
20260902144005 26 298 1.6 11.3 0.00 0.00 0.00 47 1025.1
20260902143005 25 290 4.8 11.3 0.00 0.00 0.00 47 1025.4
20260902142505 26 251 8.0 11.3 0.00 0.00 0.00 46 1025.4
20260902142005 25 266 3.2 11.3 0.00 0.00 0.00 47 1025.1
20260902141005 25 265 8.0 9.7 0.00 0.00 0.00 45 1025.4
20260902140005 25 287 12.9 20.9 0.00 0.00 0.00 47 1025.4
20260902135505 24 289 4.8 8.0 0.00 0.00 0.00 49 1025.4
20260902135005 25 285 8.0 9.7 0.00 0.00 0.00 47 1025.4
20260902134505 25 282 9.7 9.7 0.00 0.00 0.00 46 1025.4
20260902134005 26 302 1.6 4.8 0.00 0.00 0.00 47 1025.4
20260902133505 25 292 4.8 9.7 0.00 0.00 0.00 47 1025.4
20260902133005 25 286 4.8 14.5 0.00 0.00 0.00 47 1025.4
20260902132005 26 279 8.0 14.5 0.00 0.00 0.00 47 1025.4
20260902131504 26 292 4.8 8.0 0.00 0.00 0.00 46 1025.4
20260902131005 25 308 3.2 3.2 0.00 0.00 0.00 48 1025.7
20260902130004 25 300 4.8 14.5 0.00 0.00 0.00 47 1026.1
20260902125505 25 244 8.0 14.5 0.00 0.00 0.00 48 1025.7
20260902124505 25 295 8.0 9.7 0.00 0.00 0.00 48 1026.1
20260902123505 25 284 4.8 9.7 0.00 0.00 0.00 49 1026.1
20260902123005 24 282 8.0 9.7 0.00 0.00 0.00 50 1025.7
20260902122504 25 284 0.0 1.6 0.00 0.00 0.00 49 1025.7
20260902122005 25 284 1.6 3.2 0.00 0.00 0.00 49 1025.7
20260902121505 24 305 1.6 3.2 0.00 0.00 0.00 52 1026.1
20260902121005 25 274 0.0 1.6 0.00 0.00 0.00 52 1025.7
20260902120505 25 274 0.0 1.6 0.00 0.00 0.00 52 1025.7
20260902120005 25 116 0.0 3.2 0.00 0.00 0.00 52 1026.1
20260902115505 23 32 3.2 3.2 0.00 0.00 0.00 54 1026.1
20260902115005 23 32 3.2 3.2 0.00 0.00 0.00 54 1026.1
20260902114004 22 300 1.6 1.6 0.00 0.00 0.00 55 1026.1
20260902113505 22 300 1.6 3.2 0.00 0.00 0.00 55 1026.1
20260902113008 22 262 3.2 3.2 0.00 0.00 0.00 55 1026.4
20260902111504 24 354 3.2 4.8 0.00 0.00 0.00 57 1026.1
20260902111004 24 112 1.6 1.6 0.00 0.00 0.00 58 1026.1
20260902110523 24 112 1.6 1.6 0.00 0.00 0.00 58 1026.1
20260902110007 24 267 0.0 0.0 0.00 0.00 0.00 56 1026.1
20260902105505 23 114 0.0 0.0 0.00 0.00 0.00 57 1026.4
20260902104504 23 93 1.6 4.8 0.00 0.00 0.00 56 1026.4
20260902104005 23 94 4.8 4.8 0.00 0.00 0.00 56 1026.4
20260902103505 23 94 4.8 4.8 0.00 0.00 0.00 56 1026.4
20260902103005 22 122 1.6 3.2 0.00 0.00 0.00 55 1026.8
20260902102504 22 123 1.6 1.6 0.00 0.00 0.00 57 1026.8
20260902101504 22 110 3.2 4.8 0.00 0.00 0.00 60 1026.4
20260902101005 22 132 3.2 4.8 0.00 0.00 0.00 60 1026.8
20260902100505 22 132 3.2 4.8 0.00 0.00 0.00 60 1026.8
20260902100005 22 190 0.0 4.8 0.00 0.00 0.00 59 1026.8
20260902095005 22 107 3.2 4.8 0.00 0.00 0.00 59 1026.8
20260902094505 23 56 0.0 9.7 0.00 0.00 0.00 56 1026.8
20260902094005 22 113 8.0 9.7 0.00 0.00 0.00 61 1026.8
20260902093505 22 114 8.0 9.7 0.00 0.00 0.00 61 1026.8
20260902092504 23 116 8.0 9.7 0.00 0.00 0.00 59 1026.8
20260902092005 23 115 8.0 9.7 0.00 0.00 0.00 59 1026.8
20260902091505 23 72 1.6 4.8 0.00 0.00 0.00 58 1026.8
20260902091005 22 116 3.2 4.8 0.00 0.00 0.00 61 1027.0
20260902090005 22 99 1.6 3.2 0.00 0.00 0.00 62 1026.8
20260902085005 21 135 1.6 3.2 0.00 0.00 0.00 64 1026.8
20260902084505 21 146 3.2 3.2 0.00 0.00 0.00 63 1026.8
20260902084005 21 166 1.6 3.2 0.00 0.00 0.00 64 1026.8
20260902083005 21 222 0.0 0.0 0.00 0.00 0.00 65 1026.8
20260902082005 20 20 0.0 0.0 0.00 0.00 0.00 67 1026.8
20260902081504 20 110 0.0 0.0 0.00 0.00 0.00 69 1026.8
20260902080504 20 170 0.0 1.6 0.00 0.00 0.00 70 1026.8
20260902080005 20 116 0.0 0.0 0.00 0.00 0.00 68 1027.1
20260902075005 20 122 4.8 4.8 0.00 0.00 0.00 68 1026.8
20260902074505 20 118 0.0 0.0 0.00 0.00 0.00 70 1027.1
20260902073505 19 135 1.6 3.2 0.00 0.00 0.00 72 1026.8
20260902072504 19 203 1.6 3.2 0.00 0.00 0.00 70 1026.6
20260902071504 18 118 3.2 4.8 0.00 0.00 0.00 73 1026.8
20260902071004 18 131 1.6 4.8 0.00 0.00 0.00 73 1026.8
20260902070505 18 230 1.6 1.6 0.00 0.00 0.00 74 1026.8
20260902070007 17 234 0.0 0.0 0.00 0.00 0.00 77 1026.8
20260902065504 17 213 1.6 1.6 0.00 0.00 0.00 77 1026.8
20260902064504 17 167 0.0 0.0 0.00 0.00 0.00 79 1027.1
20260902064005 16 164 0.0 1.6 0.00 0.00 0.00 80 1026.9
20260902063005 16 148 0.0 0.0 0.00 0.00 0.00 83 1026.8
20260902062504 15 146 0.0 0.0 0.00 0.00 0.00 84 1026.8
20260902062004 15 145 0.0 0.0 0.00 0.00 0.00 85 1026.8
20260902061504 15 241 0.0 0.0 0.00 0.00 0.00 86 1026.8
20260902061004 15 232 0.0 0.0 0.00 0.00 0.00 87 1026.8
20260902060004 13 192 0.0 0.0 0.00 0.00 0.00 90 1026.4
20260902055505 13 167 0.0 0.0 0.00 0.00 0.00 92 1026.7
20260902055005 13 164 0.0 0.0 0.00 0.00 0.00 92 1026.8
20260902054504 13 167 0.0 0.0 0.00 0.00 0.00 93 1026.4
20260902054004 12 175 0.0 0.0 0.00 0.00 0.00 94 1026.4
20260902053504 12 175 0.0 0.0 0.00 0.00 0.00 94 1026.4
20260902053004 12 173 0.0 0.0 0.00 0.00 0.00 96 1026.4
20260902052004 12 186 0.0 0.0 0.00 0.00 0.00 97 1026.4
20260902051504 11 160 0.0 0.0 0.00 0.00 0.00 97 1026.1
20260902051005 11 171 0.0 0.0 0.00 0.00 0.00 97 1026.4
20260902050505 11 171 0.0 0.0 0.00 0.00 0.00 97 1026.4
20260902050007 11 172 0.0 0.0 0.00 0.00 0.00 97 1026.4
20260902045505 11 151 0.0 0.0 0.00 0.00 0.00 97 1026.4
20260902045005 11 151 0.0 0.0 0.00 0.00 0.00 97 1026.4
20260902044505 11 154 0.0 0.0 0.00 0.00 0.00 97 1026.4
20260902044004 11 151 0.0 0.0 0.00 0.00 0.00 97 1026.1
20260902043505 11 151 0.0 0.0 0.00 0.00 0.00 97 1026.1
20260902043004 11 151 0.0 0.0 0.00 0.00 0.00 97 1026.4
20260902042505 11 222 0.0 0.0 0.00 0.00 0.00 97 1026.1
20260902040504 11 152 0.0 0.0 0.00 0.00 0.00 97 1026.1
20260902040004 11 146 0.0 0.0 0.00 0.00 0.00 97 1026.1
20260902035504 11 203 0.0 0.0 0.00 0.00 0.00 97 1026.4
20260902035004 11 157 0.0 0.0 0.00 0.00 0.00 97 1026.1
20260902034504 11 182 0.0 0.0 0.00 0.00 0.00 97 1026.1
20260902034004 11 222 0.0 0.0 0.00 0.00 0.00 97 1026.1
20260902033504 11 174 0.0 0.0 0.00 0.00 0.00 97 1026.1
20260902033004 11 163 0.0 0.0 0.00 0.00 0.00 97 1026.4
20260902032504 11 173 0.0 0.0 0.00 0.00 0.00 97 1026.1
20260902032004 11 162 0.0 0.0 0.00 0.00 0.00 97 1026.4
20260902030505 11 156 0.0 0.0 0.00 0.00 0.00 97 1026.4
20260902030004 11 141 0.0 0.0 0.00 0.00 0.00 97 1026.1
20260902025504 11 149 0.0 0.0 0.00 0.00 0.00 97 1026.4
20260902025004 11 146 0.0 0.0 0.00 0.00 0.00 97 1026.4
20260902024504 11 146 0.0 0.0 0.00 0.00 0.00 97 1026.4